This is the latest recevied weather packets stored in our database for station/object KB3KBR-WX. If no packets are shown the sender has not sent any weather packets the latest 10 day(s).
| Time | Temp. | Humidity | Pressure | Rain* | Wind** | Luminosity | Snow |
|---|---|---|---|---|---|---|---|
| 1787851228 | 24.44° C | 76% | 1012.6 hPa | 0 mm | - | - | - |
| 1787850899 | 24.44° C | 76% | 1012.6 hPa | 0 mm | - | - | - |
| 1787850569 | 24.44° C | 75% | 1012.6 hPa | 0 mm | - | - | - |
| 1787850239 | 25° C | 74% | 1012.5 hPa | 0 mm | - | - | - |
| 1787849579 | 25° C | 75% | 1012.6 hPa | 0 mm | - | - | - |
| 1787849279 | 24.44° C | 77% | 1012.6 hPa | 0 mm | - | - | - |
| 1787848949 | 24.44° C | 76% | 1012.6 hPa | 0 mm | - | - | - |
| 1787848648 | 23.89° C | 80% | 1012.6 hPa | 0 mm | - | - | - |
| 1787847989 | 23.89° C | 82% | 1012.7 hPa | 0 mm | - | - | - |
| 1787847660 | 23.33° C | 80% | 1012.8 hPa | 0 mm | - | - | - |
| 1787847328 | 23.33° C | 82% | 1012.8 hPa | 0 mm | - | - | - |
| 1787846999 | 23.33° C | 81% | 1012.8 hPa | 0 mm | - | - | - |
| 1787846669 | 23.33° C | 82% | 1012.8 hPa | 0 mm | - | - | - |
| 1787846369 | 23.33° C | 83% | 1012.7 hPa | 0 mm | - | - | - |
| 1787846093 | 23.33° C | 83% | 1012.7 hPa | 0 mm | - | - | - |
| 1787846042 | 23.33° C | 83% | 1012.7 hPa | 0 mm | - | - | - |
| 1787845709 | 23.33° C | 84% | 1012.7 hPa | 0 mm | - | - | - |
| 1787845409 | 22.78° C | 85% | 1012.7 hPa | 0 mm | - | - | - |
| 1787845108 | 22.78° C | 84% | 1012.8 hPa | 0 mm | - | - | - |
| 1787844778 | 22.22° C | 85% | 1012.8 hPa | 0 mm | - | - | - |
| 1787844448 | 22.22° C | 85% | 1012.8 hPa | 0 mm | - | - | - |
| 1787844118 | 22.22° C | 85% | 1012.8 hPa | 0 mm | - | - | - |
| 1787843821 | 22.22° C | 85% | 1012.7 hPa | 0 mm | - | - | - |
| 1787843519 | 22.22° C | 85% | 1012.6 hPa | 0 mm | - | - | - |
| 1787843189 | 22.22° C | 86% | 1012.5 hPa | 0 mm | - | - | - |
* Rain latest hour (hover to see other rain measurements)
** Current wind speed in m/s (hover to see current wind gust speed)